Погода в Вологде

Хотите узнать прогноз погоды в Вологде? Тогда Вам сюда: Погода в Вологде

Поиск расширенной информации на нашем сайте:

Полезная информация:

Новости сайта



02.01.2020
Опубликован Долгосрочный прогноз погоды по городам России и ближнего зарубежья на январь 2020 года.
Карты: Прогноз на январь и февраль 2020 года, Сравнение прогнозируемой аномалии приземной температуры воздуха на январь 2020 года по разным моделям.




Погода в Вологде - сегодня

Время (UTC), дата Ветер
(°,м/с) 
Видим.   Явления Облачность Т
(°С)
Тd
(°С)
f(%) Тe
(°С)
Pmin
(гПа)
dP
(гПа)
Po
(мм)
O2
(г/м3)
Тmin Tmax R s Состояние
почвы
12 19.10.20 210 (ЮЗ) 20000 м  {ливн. осадки}  8/8 600 м кучево-дожд. 
[Cb cap]
+4.2 -0.1 74 +3  1004.5  741  294           
15 19.10.20 190 (Ю) 20000 м    1/1 600 м 
[Sc diur, vesp]
+1 -0.9 87 1005.1  0.4  742  298    +4.7  0.5     
18 19.10.20 180 (Ю) 20000 м    8/8 2000 м средняя 
[Ac trans]
+0 -1 93 +1  1004.9  -0.2  742  299           
21 19.10.20 130 (ЮВ) 20000 м    3/3 2000 м средняя 
[Ac trans]
-0.6 -1.6 93 1004.2  -0.7  741  299           
00 20.10.20 160 (Ю) 20000 м  в посл. час дождь  10/10 2000 м 
[Ac As]
+0.7 -0.3 93 1003.1  -1  740  297           
03 20.10.20 170 (Ю) 20000 м  {снег}  10/10 360 м 
[Sc]
+0.6 -0.5 92 +1  1003  -0.1  740  298  -0.9    0.4    влажная 
06 20.10.20 240 (ЮЗ) 10 км  слаб. снег  10/10 420 м 
[Sc]
+0.6 -0.4 93 +1  1004.3  1.2  741  298  -0.1         
09 20.10.20 290 (З) 20000 м  {снег}  10/10 360 м 
[Sc]
+2.4 -0.5 81 +1  1005.6  1.4  742  296           
12 20.10.20 270 (З) 20000 м  {снег}  8/6 600 м кучево-дожд., средняя 
[Cb cap|Ac trans]
+3.4 -0.9 73 +1  1007.4  1.9  744  296           
15 20.10.20 290 (З) 20000 м  в посл. час снег  9/9 600 м кучево-дожд. 
[Cb cap]
+0.8 -1.5 85 -1  1009.5  1.9  745  299    +3.6  0.7     
18 20.10.20 320 (СЗ) 20000 м  {снег}  8/8 600 м 
[Sc]
+0.1 -3.4 77 -2  1011.8  2.2  747  301           
21 20.10.20 270 (З) 20000 м    8/8 600 м 
[Sc]
-0.7 -3.5 81 -2  1013.5  1.6  748  302           
00 21.10.20 270 (З) 10 км  слаб. снег  10/8 360 м средняя 
[Frnb|As op]
-0.6 -2.5 87 -2  1014.1  0.6  748  302           
03 21.10.20 270 (З) 10 км  слаб. снег  10/8 360 м средняя 
[Frnb|As op]
-0.6 -2.7 86 -2  1015.1  749  303  -1.5    0.3     
06 21.10.20 270 (З) 10 км  слаб. снег  9/9 540 м 
[Sc]
-0.5 -2.9 84 -2  1016.5  1.4  750  303           
09 21.10.20 280 (З) 20000 м  в посл. час снег  9/9 700 м 
[Sc]
+0.8 -2.9 76 -1  1017.4  0.9  751  302           
12 21.10.20 270 (З) 20000 м  {снег}  9/9 930 м 
[Sc]
+1.6 -3.4 69 1017.7  0.4  751  301           
15 21.10.20 320 (СЗ) 20000 м    9/9 840 м 
[Sc]
+0.6 -3 77 1018.5  0.7  752  303    +2.2  0.0     
18 21.10.20 320 (СЗ) 20000 м    10/10 630 м 
[Sc]
-0.3 -3.7 78 -1  1018.8  0.2  752  304           
21 21.10.20 300 (СЗ) 20000 м    10/10 600 м 
[Sc]
-0.4 -3.9 77 1019.3  0.5  752  304           
00 22.10.20 тихо ()   20000 м    ясно 
-3.1 -4.7 89 -3  1019.4  752  307           
03 22.10.20 160 (Ю) 20000 м    10/10 570 м 
[Sc]
-2.3 -3.7 90 -2  1019.6  0.2  752  306  -3.4        влажная 
06 22.10.20 140 (ЮВ) 20000 м    9/9 420 м 
[Sc]
-2 -4.2 85 -3  1019.4  -0.2  752  306           
09 22.10.20 140 (ЮВ) 20000 м    4/3 600 м верхняя 
[Sc|Ci fib]
+1.5 -3.2 71 1018.1  -1  751  301           
12 22.10.20 140 (ЮВ) 20000 м    9/4 600 м средняя 
[Sc|Ac trans]
+1.6 -3.6 68 1016.1  -2  750  301           
Время (UTC), дата Ветер
(°,м/с) 
Видим.   Явления Облачность Т
(°С)
Тd
(°С)
f(%) Тe
(°С)
Pmin
(гПа)
dP
(гПа)
Po
(мм)
O2
(г/м3)
Тmin Tmax R s Состояние
почвы

Для получения пояснительной информации подведите курсор к названию столбца.

ПОГОДА в Вологде - архив

Всё, что Вы хотите узнать о погоде в Вологде - удобно и подробно!

Выберите нужную дату (начиная с 1 января 2019* года) и нажмите кнопку "Найти".
Будут отображены архивные сводки погоды по пункту Вологда, начиная с указанной даты.


Отображать данные в формате CSV (для использования в таблицах Excel)


Внимание! Наш архив погоды предназначен исключительно для личного некоммерческого использования в познавательных целях. Если Вам необходимы официальные справки о состоянии погоды (для производственных, юридических, коммерческих и т.п. целей), обращайтесь в органы Росгидромета.

*Примечание: данная дата относится к архиву по метеостанциям СССР (Россия, СНГ, Балтия).
Архив по метеостанциям Зарубежной Европы и Азии (кроме Китая) хранится 10 дней, по другим регионам земного шара (Китай, Африка, Америка, Австралия, Океания) - 1 день.

Вологда - район местоположения метеостанции


Название, широта, долгота, высота метеостанции:
Вологда (город) 59.3°ш. 39.9°д. 130 м над ур. моря [Российская Федерация]

Дополнительная информация

В oтличие oт бoльшинства пoгoдных сайтoв мы публикуем пoдрoбную метеoинфoрмацию в детальнoм прoфессиoнальнoм фoрмате.

Характеристики температуры и влажнoсти вoздуха измеряются на высoте 2 м в тени вдали oт зданий и деревьев.
Скoрoсть ветра измеряется на высoте 10 м (на урoвне рoста челoвека скoрoсть ветра ниже в 1.5-2 раза). Если метеoстанция нахoдится в гoрoде или в лесу, тo скoрoсть ветра занижена на 2-4 м/с пo сравнению с oткрытым местoм. Скoрoсть ветра над акватoриями крупных рек и oзёр, а также на вершинах хoлмoв на 2-5 м/с выше, чем в oбычных услoвиях.
Атмoсфернoе давление в разных тoчках местнoсти мoжет значительнo oтличаться oт давления на метеoстанции, в зависимoсти oт услoвий рельефа (при пoдъёме на 10 м давление пoнижается примернo на 1 мм рт.ст.).